User: anonymous   Login
Location: Gesvres
(49.0440°N, 2.8518°E)
Time: 07:25:13
(UTC+00:00)
Language:

Meteor 1-11 - Orbit

View from above orbital plane
View from above orbital plane
View from above satellite
View from above satellite

Ground track
Ground track

The orbit data is extracted from the following two-line orbital elements,

1 05917U 72022A   23156.82139156  .00000251  00000-0  13773-3 0  9999
2 05917  81.2214 283.6958 0030152 214.6275 145.2933 14.08834520628492
Epoch (UTC): 05 June 2023 19:42:48
Eccentricity: 0.0030152
inclination: 81.2214°
perigee height: 841 km
apogee height: 885 km
right ascension of ascending node: 283.6958°
argument of perigee: 214.6275°
revolutions per day: 14.08834520
mean anomaly at epoch: 145.2933°
orbit number at epoch: 62849

The dashed part of the orbit path shows where the satellite is in the earth's shadow,  

DLR